La Paz, Mexico

6:19 PM MDT on July 27, 2017 (GMT -0600)
Gen Manuel Marquez De Leon

Weather History for MMLP - December, 2012

Change the Weather History Date:

Saturday, December 15, 2012

  Actual Average Record
Temperature  
Mean Temperature 65 °F -  
Max Temperature 70 °F 76 °F 84 °F (1998)
Min Temperature 60 °F 52 °F 44 °F (2006)
Growing Degree Days 15 (Base 50)    
Moisture  
Dew Point 55 °F    
Average Humidity 71    
Maximum Humidity 88    
Minimum Humidity 50    
Precipitation  
Precipitation 0.00 in - - ()
Sea Level Pressure  
Sea Level Pressure 30.08 in    
Wind  
Wind Speed 3 mph ()    
Max Wind Speed 8 mph    
Max Gust Speed -    
Visibility 9.8 miles    
Events      
Averages and records for this station are not official NWS values.
T = Trace of Precipitation, MM = Missing Value Source: Averaged Metar Reports

Daily Weather History Graph

Daily Weather History Graph

Search for Another Location

Airport or City:

Trip Planner

Search our weather history database for the weather conditions in past years. The results will help you decide how hot, cold, wet, or windy it might be!

Date:

Astronomy

Dec. 15, 2012 Rise Set
Actual Time 6:57 AM MST 5:36 PM MST
Civil Twilight 6:32 AM MST 6:01 PM MST
Nautical Twilight 6:04 AM MST 6:29 PM MST
Astronomical Twilight 5:36 AM MST 6:57 PM MST
Moon 9:03 AM MST (12/15) 8:30 PM MST (12/15)
Length of Visible Light 11h 29m
Length of Day
10h 39m
Waxing Crescent, 9% of the Moon is Illuminated
Dec 15
Waxing Crescent
Dec 19
First Quarter
Dec 28
Full
Jan 4
Last Quarter
Jan 11
New

Hourly Weather History & Observations

Time (MST) Temp. Dew Point Humidity Pressure Visibility Wind Dir Wind Speed Gust Speed Precip Events Conditions
12:41 AM 60.8 °F 57.2 °F 88% 30.07 in 8.0 mi Calm Calm - N/A   Overcast
1:41 AM 59.0 °F 55.4 °F 88% 30.11 in 8.0 mi SW 3.5 mph - N/A   Overcast
1:50 AM 65 °F 61 °F 81% 30.06 in 2 mi SSE 2.2 mph - -   Mostly Cloudy
2:41 AM 60.8 °F 55.4 °F 82% 30.06 in 8.0 mi SE 4.6 mph - N/A   Overcast
4:12 AM 59.0 °F 55.4 °F 88% 30.05 in 8.0 mi South 6.9 mph - N/A   Overcast
4:41 AM 59.0 °F 55.4 °F 88% 30.09 in 8.0 mi South 4.6 mph - N/A   Overcast
4:50 AM 63 °F 58 °F 78% 30.08 in 2 mi South 4.5 mph - -   Mostly Cloudy
5:41 AM 59.0 °F 55.4 °F 88% 30.06 in 10.0 mi SSW 3.5 mph - N/A   Overcast
6:49 AM 57.2 °F 53.6 °F 88% 30.08 in 10.0 mi South 4.6 mph - N/A   Overcast
7:40 AM 62 °F 58 °F 81% 30.11 in 16 mi South 2.2 mph - -   Mostly Cloudy
7:44 AM 59.0 °F 53.6 °F 82% 30.14 in 10.0 mi Calm Calm - N/A   Overcast
8:50 AM 60.8 °F 53.6 °F 77% 30.10 in 10.0 mi ESE 3.5 mph - N/A   Overcast
9:46 AM 62.6 °F 50.0 °F 63% 30.11 in 10.0 mi SSW 3.5 mph - N/A   Overcast
10:50 AM 67 °F 58 °F 64% 30.10 in 16 mi South 4.5 mph - -   Mostly Cloudy
10:50 AM 64.4 °F 50.0 °F 59% 30.17 in 12.0 mi SSW 5.8 mph - N/A   Overcast
11:51 AM 66.2 °F 50.0 °F 56% 30.10 in 12.0 mi Calm Calm - N/A   Overcast
12:52 PM 68.0 °F 51.8 °F 56% 30.07 in 12.0 mi North 3.5 mph - N/A   Overcast
1:50 PM 69 °F 54 °F 50% 30.05 in 16 mi WNW 4.5 mph - -   Mostly Cloudy
1:52 PM 68.0 °F 51.8 °F 56% 30.09 in 10.0 mi North 8.1 mph - N/A   Overcast
2:51 PM 68.0 °F 53.6 °F 60% 30.01 in 10.0 mi North 5.8 mph - N/A   Overcast
3:50 PM 69.8 °F 53.6 °F 56% 30.01 in 12.0 mi North 5.8 mph - N/A   Overcast
4:50 PM 69 °F 58 °F 59% 30.01 in 12 mi North 4.5 mph - -   Mostly Cloudy
4:51 PM 68.0 °F 55.4 °F 64% 30.11 in 10.0 mi North 5.8 mph - N/A   Mostly Cloudy
5:53 PM 68.0 °F 55.4 °F 64% 30.03 in 10.0 mi North 5.8 mph - N/A   Mostly Cloudy
6:49 PM 66.2 °F 57.2 °F 73% 30.06 in 10.0 mi Calm Calm - N/A   Mostly Cloudy
7:50 PM 67 °F 58 °F 64% 30.05 in 2 mi North 4.5 mph - -   Mostly Cloudy
7:51 PM 64.4 °F 53.6 °F 68% 30.17 in 10.0 mi Calm Calm - N/A   Mostly Cloudy
8:42 PM 64.4 °F 53.6 °F 68% 30.07 in 10.0 mi Calm Calm - N/A   Mostly Cloudy
9:46 PM 62.6 °F 53.6 °F 72% 30.07 in 10.0 mi Calm Calm - N/A   Scattered Clouds
10:47 PM 60.8 °F 53.6 °F 77% 30.19 in 10.0 mi Calm Calm - N/A   Scattered Clouds